Regional Weather Roundup
Issued by NWS Northern Indiana

Home | Current Version | Previous Version | Graphics & Text | Print | Product List | Glossary On
Versions: 1 2 3 4 5 6 7 8 9 10 11 12 13 14 15 16 17 18 19 20 21 22 23 24 25 26 27 28 29 30 31 32 33 34 35 36 37 38 39 40 41 42 43 44 45 46 47 48 49 50
225
ASUS43 KIWX 271400
RWRIWX

KIWX WEATHER ROUNDUP
NATIONAL WEATHER SERVICE NORTHERN INDIANA
1000 AM EDT TUE SEP 27 2016

NOTE: "FAIR" INDICATES FEW OR NO CLOUDS BELOW 12,000 FEET WITH NO
SIGNIFICANT WEATHER AND/OR OBSTRUCTIONS TO VISIBILITY.

* THESE STATIONS ARE NOT UNDER NWS QUALITY CONTROL. THEY ALSO MAY NOT
  REPORT WEATHER SUCH AS PRECIPITATION OR FOG.

INZ001>027-271500-
NORTHERN INDIANA

CITY           SKY/WX    TMP DP  RH WIND       PRES   REMARKS
GARY*          MOSUNNY   59  41  51 SW13      29.85F
SOUTH BEND     SUNNY     54  44  69 SW14      29.84F
GOSHEN         SUNNY     56  42  59 SW15      29.84S
ANGOLA*          N/A     57  45  62 SW13      29.83S
FORT WAYNE     MOSUNNY   59  43  55 SW14      29.87F
PERU/GRISSOM   SUNNY     60  45  59 W16       29.88F

$$
INZ028>050-271500-
CENTRAL INDIANA

CITY           SKY/WX    TMP DP  RH WIND       PRES   REMARKS
LAFAYETTE      SUNNY     57  48  72 W6        29.92S
MUNCIE*        SUNNY     62  44  51 SW9       29.92F
INDIANAPOLIS   SUNNY     59  47  64 SW10      29.95F

$$
MIZ043>046-050>051-056>058-064>065-071>073-077>080-271500-
SOUTHWEST LOWER MICHIGAN

CITY           SKY/WX    TMP DP  RH WIND       PRES   REMARKS
BATTLE CREEK   SUNNY     59  47  64 W14       29.77F
BENTON HARBOR  SUNNY     63  40  42 W18G30    29.79S
COLDWATER*     SUNNY     56  41  55 SW12      29.81S
HILLSDALE*     SUNNY     55  41  58 SW7       29.81S
HOLLAND        MOSUNNY   62  44  51 W18G29    29.75R
GRAND RAPIDS   PTSUNNY   60  47  61 SW14      29.73S
KALAMAZOO      SUNNY     60  45  57 SW14G24   29.78F
STURGIS*       SUNNY     55  44  66 SW12      29.81F
THREE RIVERS*  FAIR      57  47  67 SW8       29.81S

$$
OHZ001>008-015>018-024>025-271500-
NORTHWEST OHIO

CITY           SKY/WX    TMP DP  RH WIND       PRES   REMARKS
DEFIANCE       SUNNY     59  42  53 SW9       29.85F
FINDLAY        SUNNY     61  42  49 SW17      29.87F
TOLEDO EXPRESS SUNNY     57  45  64 SW10      29.83F
TOLEDO METCALF SUNNY     59  44  57 SW14      29.85F
LIMA           SUNNY     60  45  57 SW12      29.90S

$$
AND FOR LAKE MICHIGAN COASTAL AND OPEN LAKE BUOY OBSERVATIONS

STATION/POSITION TEMP    WIND        PRES    VSBY  WAVE
                 AIR SEA DIR/SP/G                  HT/PER
                 (F)     (DEG/KT/KT) (MB)    (MI)  (FT/S)
CALUMET HARBOR    58     230/  8/ 12 1010.0F
MICHIGAN CITY     56     190/ 14/ 16   N/A
BURNS HARBOR      57     230/ 13/ 16 1010.8F
SAINT JOSEPH      62     260/ 19/ 25 1009.5F
SOUTH LAKE BUOY   60 70  260/ 25/ 29 1006.6          6/ 5
4 MI NW BRIDGMAN  63 67  270/ 19/ 29 1009.4R         8/ 6
MICHIGAN CITY     60 67  250/ 17/ 23   N/A           4/ 4

$$
&&




USA.gov is the U.S. government's official web portal to all federal, state and local government web resources and services.